Little Rock, AR

11:31 PM CDT on March 24, 2017 (GMT -0500)
Adams

Weather History for KLIT - February, 2014

Change the Weather History Date:

Saturday, February 15, 2014

  Actual Average Record
Temperature  
Mean Temperature 39 °F 45 °F  
Max Temperature 50 °F 54 °F 78 °F (2005)
Min Temperature 27 °F 36 °F 22 °F (2015)
Degree Days  
Heating Degree Days 26 20  
Month to date heating degree days 482 321  
Since 1 July heating degree days 2622 2254  
Cooling Degree Days 0 0  
Month to date cooling degree days 0 0  
Year to date cooling degree days 0 1  
Moisture  
Dew Point 25 °F    
Average Humidity 60    
Maximum Humidity 85    
Minimum Humidity 36    
Precipitation  
Precipitation 0.00 in 0.13 in 2.81 in (1987)
Month to date precipitation 3.00 1.84  
Year to date precipitation 5.31 5.26  
Snow  
Snow 0.00 in 0.00 in 0.40 in (1978)
Month to date snowfall 2.5 1.1  
Since 1 July snowfall 3.6 3.3  
Snow Depth 0.00 in    
Sea Level Pressure  
Sea Level Pressure 30.14 in    
Wind  
Wind Speed 6 mph (SE)    
Max Wind Speed 13 mph    
Max Gust Speed -    
Visibility 10 miles    
Events      
T = Trace of Precipitation, MM = Missing Value Source: NWS Daily Summary

Daily Weather History Graph

Daily Weather History Graph

Search for Another Location

Airport or City:

Trip Planner

Search our weather history database for the weather conditions in past years. The results will help you decide how hot, cold, wet, or windy it might be!

Date:

Astronomy

Feb. 15, 2014 Rise Set
Actual Time 6:54 AM CST 5:52 PM CST
Civil Twilight 6:28 AM CST 6:17 PM CST
Nautical Twilight 5:59 AM CST 6:47 PM CST
Astronomical Twilight 5:29 AM CST 7:16 PM CST
Moon 6:48 PM CST (2/15) 6:56 AM CST (2/15)
Length of Visible Light 11h 49m
Length of Day
10h 57m
Waxing Gibbous, 99% of the Moon is Illuminated
Feb 15
Waxing Gibbous
Feb 22
Last Quarter
Mar 1
New
Mar 8
First Quarter
Mar 16
Full

Hourly Weather History & Observations

Time (CST) Temp. Windchill Dew Point Humidity Pressure Visibility Wind Dir Wind Speed Gust Speed Precip Events Conditions
12:53 AM 35.1 °F 28.6 °F 25.0 °F 67% 30.13 in 10.0 mi NNE 8.1 mph - N/A   Clear
1:53 AM 33.1 °F 25.5 °F 24.1 °F 70% 30.14 in 10.0 mi North 9.2 mph - N/A   Clear
2:53 AM 28.9 °F 22.8 °F 21.9 °F 75% 30.14 in 10.0 mi North 5.8 mph - N/A   Clear
3:53 AM 32.0 °F - 23.0 °F 69% 30.15 in 10.0 mi Calm Calm - N/A   Clear
4:53 AM 28.9 °F 25.2 °F 21.9 °F 75% 30.19 in 10.0 mi WNW 3.5 mph - N/A   Clear
5:53 AM 25.0 °F 18.1 °F 19.9 °F 81% 30.20 in 10.0 mi NNE 5.8 mph - N/A   Clear
6:53 AM 25.0 °F - 19.0 °F 78% 30.21 in 10.0 mi Calm Calm - N/A   Mostly Cloudy
7:53 AM 28.0 °F - 24.1 °F 85% 30.24 in 10.0 mi Calm Calm - N/A   Mostly Cloudy
8:53 AM 33.1 °F 26.9 °F 23.0 °F 66% 30.24 in 10.0 mi East 6.9 mph - N/A   Mostly Cloudy
9:53 AM 35.1 °F 32.2 °F 21.9 °F 59% 30.27 in 10.0 mi SE 3.5 mph - N/A   Scattered Clouds
10:53 AM 39.0 °F 34.0 °F 23.0 °F 53% 30.25 in 10.0 mi SE 6.9 mph - N/A   Mostly Cloudy
11:53 AM 42.1 °F 35.7 °F 23.0 °F 47% 30.21 in 10.0 mi SE 11.5 mph - N/A   Scattered Clouds
12:53 PM 46.0 °F 40.6 °F 24.1 °F 42% 30.17 in 10.0 mi SSE 11.5 mph - N/A   Scattered Clouds
1:53 PM 48.9 °F - 24.1 °F 38% 30.13 in 10.0 mi ESE 10.4 mph - N/A   Mostly Cloudy
2:53 PM 51.1 °F - 25.0 °F 36% 30.09 in 10.0 mi SSE 6.9 mph - N/A   Mostly Cloudy
3:53 PM 51.1 °F - 27.0 °F 39% 30.06 in 10.0 mi SE 12.7 mph - N/A   Mostly Cloudy
4:53 PM 51.1 °F - 27.0 °F 39% 30.04 in 10.0 mi SSE 8.1 mph - N/A   Scattered Clouds
5:53 PM 45.0 °F 40.6 °F 30.9 °F 58% 30.06 in 10.0 mi ESE 8.1 mph - N/A   Scattered Clouds
6:53 PM 45.0 °F - 33.1 °F 63% 30.08 in 10.0 mi Calm Calm - N/A   Scattered Clouds
7:53 PM 43.0 °F - 33.1 °F 68% 30.09 in 10.0 mi Calm Calm - N/A   Scattered Clouds
8:53 PM 39.9 °F 37.8 °F 32.0 °F 73% 30.10 in 10.0 mi South 3.5 mph - N/A   Partly Cloudy
9:53 PM 44.1 °F 40.8 °F 27.0 °F 51% 30.09 in 10.0 mi SSW 5.8 mph - N/A   Scattered Clouds
10:53 PM 41.0 °F 38.0 °F 27.0 °F 57% 30.09 in 10.0 mi South 4.6 mph - N/A   Scattered Clouds
11:53 PM 39.0 °F 36.8 °F 27.0 °F 62% 30.09 in 10.0 mi SSE 3.5 mph - N/A   Mostly Cloudy